Terug naar catalogus

SJ-11-08

ActiefWetenschapSSO
NORAD 40286·PAYLOAD·🇨🇳 China

Gelanceerd Oct 27, 2014 vanaf Jiuquan Satellite Launch Center

Loading…

Volgende Passages (komende 24 uur)

TLE

VersSource: Space-Track

Epoch: Sep 14, 2026, 15:40 UTC

1 40286U 14066A   26257.65329833  .00000443  00000-0  89690-4 0  9995
2 40286  98.3652  44.1088 0011202 316.3215  43.7100 14.66257771634326

Volg SJ-11-08 in realtime met AllMySat

Download on the App Store